CAPE
1925 1912 2034 1811 1627 1548 1602 1514 1401 1275 1178 1125 954 978 1088 1165 1266 1202 1144 1066 921 751 630 586 577 576 553 478 376 38 0 0 0 0 0 0 0 0 0 0 0 0
1945 2116 1934 1721 1561 1506 1594 1605 1436 1456 1337 1328 1226 1190 995 1175 1223 1182 1148 1059 896 759 677 647 642 624 563 471 325 141 0 0 0 0 0 0 0 0 0 0 0 0
2106 2105 2004 1869 1641 1505 1588 1466 1440 1416 1589 1290 1143 1028 1062 1158 1186 1133 1119 1001 761 784 726 698 684 663 582 443 302 273 88 0 0 0 0 0 0 0 0 0 0 0
2178 2128 2020 1898 1637 1491 1460 1462 1499 1625 1562 1342 1172 1099 1078 1133 1189 1044 1114 1004 778 808 797 746 758 694 608 464 307 296 259 0 0 0 0 0 0 0 0 0 0 0
2200 2100 1996 1777 1538 1452 1416 1445 1515 1534 1509 1400 1191 1113 1100 1112 1154 1154 1162 1082 808 768 798 785 765 717 582 442 308 324 266 0 0 0 0 0 0 0 0 0 0 0
2088 2066 1952 1624 1639 1438 1420 1460 1488 1524 1535 1431 1198 1067 1136 1140 1178 1078 1197 1108 861 803 802 796 792 696 558 406 326 337 258 0 0 0 0 0 0 0 0 0 0 0
2112 2011 1832 1571 1515 1422 1432 1431 1475 1524 1537 1424 1182 1129 1139 1145 1163 1190 1247 1182 923 804 794 830 773 650 499 352 313 244 0 0 0 0 0 0 0 0 0 0 0 0
2036 1929 1756 1665 1539 1408 1417 1402 1448 1523 1536 1415 1205 1199 1152 1146 1120 1266 1297 1186 938 714 835 825 703 544 408 350 273 135 0 0 0 0 0 0 0 0 0 0 0 0
1869 1900 1842 1758 1632 1434 1410 1394 1404 1522 1526 1407 1298 1238 1187 1167 1103 1318 1340 1176 933 804 850 775 624 495 427 351 202 0 0 0 0 0 0 0 0 0 0 0 0 0
1713 1776 1827 1846 1767 1530 1402 1382 1419 1518 1510 1388 1378 1251 1197 1168 1151 1336 1364 1183 998 844 837 713 586 559 490 357 115 22 0 0 0 0 0 0 0 0 0 0 0 0
1784 1668 1803 1900 1862 1601 1444 1383 1425 1484 1477 1474 1421 1232 1204 1183 1289 1383 1390 1206 1047 870 805 643 573 549 564 490 191 27 0 0 0 0 0 0 0 0 0 0 0 0
1698 1652 1776 1866 1856 1701 1482 1458 1450 1465 1469 1490 1436 1233 1198 1194 1376 1413 1352 1192 1078 855 732 606 504 506 588 555 352 16 0 0 0 0 0 0 0 0 0 0 0 0
1628 1668 1790 1818 1822 1747 1559 1486 1516 1519 1507 1508 1411 1240 1220 1267 1419 1385 1290 1198 1078 875 772 694 551 513 638 617 397 173 0 0 0 0 0 0 0 0 0 0 0 0
1651 1694 1720 1776 1764 1758 1624 1566 1535 1537 1570 1519 1393 1272 1279 1374 1444 1312 1156 1243 1081 868 745 658 565 593 647 562 374 213 0 0 0 0 0 0 0 0 0 0 0 0
1659 1697 1687 1713 1746 1772 1670 1588 1555 1566 1607 1522 1314 1308 1316 1432 1470 1270 1314 1241 1043 817 675 614 632 666 576 454 370 215 0 0 0 0 0 0 0 0 0 0 0 0
1638 1658 1679 1691 1773 1721 1720 1616 1574 1612 1634 1434 1260 1328 1413 1477 1486 1414 1343 1225 1012 787 688 618 621 588 501 396 359 138 0 0 0 0 0 0 0 0 0 0 0 0
1561 1588 1639 1643 1694 1745 1697 1623 1561 1612 1654 1279 1191 1307 1460 1497 1433 1354 1267 1149 981 817 716 678 610 476 452 412 362 217 0 0 0 0 0 0 0 0 0 0 0 0
1460 1551 1576 1591 1636 1688 1664 1579 1546 1658 1684 1365 1258 1368 1413 1424 1412 1296 1254 1094 949 859 825 816 702 473 407 432 446 369 203 0 0 65 0 0 0 0 0 0 0 0
1443 1458 1502 1459 1502 1591 1658 1589 1558 1661 1684 1436 1327 1362 1292 1242 1269 1248 1156 1064 940 924 938 810 658 498 415 456 530 525 308 181 158 130 0 0 0 0 0 0 9 11
1432 1435 1441 1430 1346 1467 1619 1598 1589 1666 1686 1440 1396 1361 1206 1186 1179 1111 1154 1060 944 957 938 770 602 450 414 440 496 538 409 204 185 158 0 0 79 147 94 167 185 154
1469 1462 1492 1444 1390 1334 1463 1589 1614 1618 1643 1402 1408 1349 1257 1170 1083 1160 1142 1041 931 988 908 768 561 438 416 448 482 538 492 251 204 170 0 0 150 151 151 183 20 28
1511 1515 1506 1461 1419 1394 1368 1438 1490 1469 1400 1199 1422 1484 1369 1238 1149 1000 991 952 926 971 910 711 524 464 474 490 516 579 519 324 206 133 0 0 37 131 162 187 73 31
1583 1579 1535 1508 1476 1456 1442 1451 1462 1365 1088 1012 1199 1399 1494 1394 1215 1060 880 885 894 941 845 660 589 486 453 478 497 502 482 378 251 185 116 6 16 19 189 188 32 48
1647 1630 1602 1557 1528 1500 1497 1501 1484 1362 1125 1018 1056 1137 1518 1520 1373 1154 815 794 864 980 1047 910 725 508 436 472 497 436 434 416 323 224 150 3 5 182 216 187 47 41
1698 1696 1675 1619 1574 1556 1533 1534 1534 1466 1192 915 970 1192 1395 1435 1476 1287 1074 956 811 910 608 510 502 362 296 335 448 461 489 464 360 263 197 199 203 207 196 55 53 54
1751 1755 1726 1666 1631 1602 1581 1527 1491 1492 1445 975 784 1085 1459 1612 1131 1046 1215 1148 1020 848 828 587 423 329 287 292 320 391 471 458 378 304 270 234 170 24 30 29 23 40
Wind_Speed
28 29 30 30 31 32 33 30 31 32 30 27 25 24 24 26 29 27 27 26 26 25 25 26 26 25 25 25 25 nan nan nan nan nan nan nan nan nan nan nan nan nan
29 31 31 28 28 31 32 29 30 30 29 27 23 23 24 28 29 28 27 26 25 25 26 26 26 26 26 26 26 26 nan nan nan nan nan nan nan nan nan nan nan nan
29 29 29 28 28 31 33 29 27 29 31 27 26 25 27 29 31 28 27 27 25 25 25 25 26 27 27 27 27 26 nan nan nan nan nan nan nan nan nan nan nan nan
26 27 27 27 29 32 34 29 27 31 31 27 25 26 27 30 30 30 28 28 26 25 25 25 27 27 27 27 27 26 25 nan nan nan nan nan nan nan nan nan nan nan
25 26 27 28 29 34 36 30 29 31 31 26 26 26 28 31 31 30 28 27 26 25 25 26 27 28 28 27 27 27 26 nan nan nan nan nan nan nan nan nan nan nan
25 27 29 30 30 34 37 31 29 33 33 28 26 27 28 31 31 30 28 27 26 26 26 26 27 28 27 27 27 27 26 nan nan nan nan nan nan nan nan nan nan nan
23 28 30 31 33 36 37 32 30 35 34 28 27 26 29 31 31 30 28 27 27 27 27 27 28 28 26 27 27 28 nan nan nan nan nan nan nan nan nan nan nan nan
24 27 30 33 35 37 37 34 31 35 36 30 26 27 30 31 31 29 27 27 27 27 27 27 28 28 27 27 28 28 nan nan nan nan nan nan nan nan nan nan nan nan
25 29 32 34 36 38 38 35 32 36 36 30 26 28 29 30 31 29 27 26 27 28 28 28 28 28 27 27 27 nan nan nan nan nan nan nan nan nan nan nan nan nan
27 31 34 36 37 38 38 35 33 36 35 30 27 30 30 29 31 30 27 26 27 28 29 29 29 28 28 27 28 nan nan nan nan nan nan nan nan nan nan nan nan nan
29 34 36 36 36 37 37 35 33 36 34 30 29 30 30 31 31 29 26 25 26 28 29 29 29 29 29 28 27 nan nan nan nan nan nan nan nan nan nan nan nan nan
31 34 34 33 33 34 34 33 32 35 34 31 30 31 32 31 31 28 25 24 25 27 29 29 29 29 30 29 29 nan nan nan nan nan nan nan nan nan nan nan nan nan
29 31 32 31 32 32 33 32 32 34 33 32 31 32 33 31 29 29 25 24 25 27 29 30 30 31 30 30 30 29 nan nan nan nan nan nan nan nan nan nan nan nan
26 29 32 32 32 35 33 32 32 31 32 33 32 32 32 31 30 29 25 23 25 27 28 30 31 31 31 31 31 30 nan nan nan nan nan nan nan nan nan nan nan nan
28 31 35 36 35 33 34 33 33 32 34 34 33 33 33 31 30 29 26 23 25 27 29 31 31 31 31 31 31 30 nan nan nan nan nan nan nan nan nan nan nan nan
31 36 39 38 36 31 33 35 36 34 33 34 32 32 34 32 31 29 26 24 26 27 29 31 30 30 31 34 33 31 nan nan nan nan nan nan nan nan nan nan nan nan
35 38 42 38 34 30 33 35 35 34 32 33 32 33 34 34 32 30 26 24 26 28 31 30 30 30 36 35 34 34 nan nan nan nan nan nan nan nan nan nan nan nan
36 40 37 33 32 30 32 35 36 35 32 32 33 33 34 34 32 29 27 25 25 28 30 31 31 34 38 36 35 35 33 nan nan nan nan nan nan nan nan nan nan nan
40 37 32 30 29 29 33 37 37 35 32 32 32 33 36 34 32 30 27 26 27 29 30 31 32 37 37 37 36 35 35 33 30 30 nan nan nan nan nan nan nan nan
41 32 28 30 31 32 36 35 35 33 32 33 35 35 35 34 32 30 28 27 27 30 31 32 33 37 37 37 36 36 36 34 31 31 nan nan nan 33 nan 34 35 35
37 30 29 33 34 33 32 33 32 31 29 32 34 34 34 33 33 30 28 28 28 30 32 33 33 40 37 37 37 37 36 33 32 30 nan nan 33 33 34 34 nan nan
30 27 30 32 32 32 31 30 32 30 29 33 35 35 34 35 33 31 30 29 30 32 33 34 36 41 39 39 40 39 38 32 31 30 nan nan nan 33 34 33 nan nan
30 31 32 32 32 32 32 33 34 33 31 35 35 34 34 34 33 32 31 31 33 35 36 36 36 38 41 42 43 43 37 32 32 30 31 nan nan nan 33 32 nan nan
33 33 33 32 32 32 31 33 36 34 34 35 34 36 34 34 35 34 33 32 33 37 41 37 33 38 45 45 46 44 36 33 32 31 31 nan nan 32 30 29 nan nan
36 35 35 34 32 32 34 35 35 35 37 38 36 35 35 36 38 36 36 36 35 37 41 40 40 38 42 47 48 45 37 35 32 31 31 31 31 30 28 nan nan nan
39 38 36 34 33 34 36 37 38 38 38 38 38 37 37 37 36 37 39 37 37 35 38 41 43 42 42 46 48 45 39 36 31 29 29 29 28 nan nan nan nan nan
Wind_Direction
297 300 298 300 301 299 296 296 292 296 299 303 304 308 311 303 298 295 287 284 289 293 294 293 293 293 292 292 294 nan nan nan nan nan nan nan nan nan nan nan nan nan
295 292 290 296 297 295 291 291 291 296 299 299 304 305 300 293 296 295 291 289 289 292 291 292 293 294 294 294 294 295 nan nan nan nan nan nan nan nan nan nan nan nan
288 292 292 293 297 297 291 287 290 293 289 295 297 294 292 291 295 295 291 289 289 289 291 291 292 293 294 293 294 294 nan nan nan nan nan nan nan nan nan nan nan nan
288 291 290 289 291 291 290 290 288 283 283 284 290 290 289 289 293 294 289 287 286 288 290 291 292 292 293 292 294 293 295 nan nan nan nan nan nan nan nan nan nan nan
284 288 285 289 290 288 290 290 288 285 285 285 284 287 288 290 293 293 288 286 285 288 289 292 291 291 291 292 294 293 296 nan nan nan nan nan nan nan nan nan nan nan
276 283 285 291 291 288 288 291 289 285 284 284 287 285 289 291 293 294 292 288 286 288 290 291 292 291 292 293 294 295 297 nan nan nan nan nan nan nan nan nan nan nan
290 283 288 290 289 287 288 289 285 282 283 283 280 285 287 291 293 294 292 288 290 291 293 293 293 292 292 293 295 296 nan nan nan nan nan nan nan nan nan nan nan nan
282 280 284 284 285 283 287 288 287 280 279 279 282 283 288 292 294 290 288 290 290 293 292 294 295 294 294 295 296 297 nan nan nan nan nan nan nan nan nan nan nan nan
279 278 279 281 282 280 285 289 288 279 278 279 278 278 284 289 292 290 291 292 292 293 294 294 295 294 294 296 296 nan nan nan nan nan nan nan nan nan nan nan nan nan
277 276 278 279 280 279 285 289 287 277 276 277 276 275 282 284 287 290 289 293 294 294 295 295 296 295 295 297 299 nan nan nan nan nan nan nan nan nan nan nan nan nan
275 275 277 281 281 279 286 289 286 274 273 275 273 275 281 283 284 285 288 293 293 297 297 297 298 297 296 298 297 nan nan nan nan nan nan nan nan nan nan nan nan nan
274 275 281 284 284 281 286 288 284 275 273 270 272 277 278 282 286 285 287 294 296 296 297 297 296 296 298 299 300 nan nan nan nan nan nan nan nan nan nan nan nan nan
274 279 281 281 281 284 283 283 280 275 273 272 269 273 277 281 285 286 285 292 295 293 295 295 295 294 295 296 298 299 nan nan nan nan nan nan nan nan nan nan nan nan
271 276 279 280 280 278 281 280 276 277 273 268 268 273 278 283 286 285 283 289 292 293 293 291 290 291 292 295 297 298 nan nan nan nan nan nan nan nan nan nan nan nan
263 267 274 274 280 282 271 276 275 273 268 266 266 269 271 280 282 283 285 290 289 291 292 289 289 291 291 294 296 298 nan nan nan nan nan nan nan nan nan nan nan nan
258 263 270 276 274 281 272 268 266 268 267 264 266 268 271 275 280 281 285 289 291 291 289 287 288 287 295 302 299 297 nan nan nan nan nan nan nan nan nan nan nan nan
253 262 262 267 275 279 265 266 268 264 264 263 264 266 271 273 277 280 282 284 289 291 292 289 289 290 301 302 301 299 nan nan nan nan nan nan nan nan nan nan nan nan
255 261 268 270 272 274 270 264 261 262 261 261 262 265 267 271 276 279 280 282 282 287 289 290 291 295 302 302 300 299 295 nan nan nan nan nan nan nan nan nan nan nan
254 261 269 268 272 270 263 259 260 260 259 260 263 263 264 272 278 276 277 280 284 288 288 288 288 297 303 303 301 300 297 292 293 297 nan nan nan nan nan nan nan nan
250 258 263 261 262 261 257 259 260 262 259 256 258 261 265 270 275 279 277 279 282 283 283 286 288 299 305 305 301 299 295 290 288 294 nan nan nan 304 nan 309 310 311
246 253 254 251 254 258 260 258 265 267 267 259 260 265 269 273 274 274 272 278 280 279 280 284 284 299 304 305 301 297 295 288 283 286 nan nan 298 301 305 308 nan nan
248 251 253 255 258 261 264 265 263 273 272 259 259 259 261 263 269 273 275 277 277 279 278 282 282 301 302 301 297 294 293 282 280 282 nan nan nan 299 304 306 nan nan
247 250 254 257 259 262 262 257 259 263 268 260 261 265 267 265 269 272 270 272 275 274 276 275 280 297 299 297 295 295 288 276 276 277 280 nan nan nan 302 303 nan nan
247 253 256 257 258 263 264 263 259 263 261 260 264 265 268 265 268 268 269 272 277 278 278 286 284 293 300 298 298 300 292 276 273 275 280 nan nan 297 299 301 nan nan
248 253 255 255 257 260 261 262 262 263 262 262 260 263 268 267 266 268 268 270 271 275 286 284 274 287 298 300 302 302 289 270 272 273 278 285 291 295 298 nan nan nan
248 253 255 256 257 256 258 262 261 258 259 264 266 265 265 264 263 264 271 273 276 279 276 277 280 283 295 303 306 305 295 275 271 273 281 287 290 nan nan nan nan nan